Location: Avully
(45.9633°N, 6.0228°E)
Time: 20:48:47
(UTC+00:00)

Cosmos 2360 Rocket - Pass Details

Date: 17 August 2024
Orbit: 834 x 843 km, 71.0° (Epoch: 10 September)

Event Time Altitude Azimuth Distance (km) Brightness Sun altitude
Exits shadow 21:23:27 12° 71° (ENE) 2,343 4.3 -23.5°
Drops below altitude 10° 21:24:07 10° 65° (ENE) 2,465 4.5 -23.6°
Sets 21:27:38 0° 43° (NE) 3,405 5.5 -23.9°
